Location: Hradec Kralove
(50.2170°N, 15.8330°E)
Time: 04:54:27
(UTC+02:00)

Explorer 7 - Pass Details

Date: 03 February 2023
Orbit: 478 x 657 km, 50.3° (Epoch: 25 March)

Event Time Altitude Azimuth Distance (km) Brightness Sun altitude
Rises 13:56:47 0° 260° (W) 2,734 10.9 19.3°
Reaches altitude 10° 13:58:58 10° 260° (W) 1,870 10.2 19.1°
Maximum altitude 14:03:16 87° 169° (S) 601 7.4 18.8°
Drops below altitude 10° 14:07:51 10° 83° (E) 1,988 9.4 18.5°
Sets 14:10:13 0° 84° (E) 2,922 10.2 18.3°
